Location: Unspecified
(43.4680°N, 87.1740°E)
Time: 21:33:27
(UTC+00:00)

ERS-1 Rocket - Pass Details

Date: 17 April 2021
Orbit: 753 x 757 km, 98.4° (Epoch: 12 May)

Event Time Altitude Azimuth Distance (km) Brightness Sun altitude
Exits shadow 14:54:54 27° 79° (E) 1,418 4.0 -19.9°
Maximum altitude 14:55:34 28° 66° (ENE) 1,391 4.1 -20.0°
Drops below altitude 10° 14:59:48 10° 8° (N) 2,287 5.8 -20.6°
Sets 15:02:22 0° 357° (N) 3,216 6.9 -20.9°
